Location: Enborne
(51.3833°N, 1.3667°W)
Time: 04:37:29
(UTC+00:00)

Lacrosse 5 rocket - Pass Details

Date: 18 September 2020
Orbit: 461 x 635 km, 57.0° (Epoch: 20 October)

Event Time Altitude Azimuth Distance (km) Brightness Sun altitude
Rises 19:44:59 0° 265° (W) 2,757 6.1 -14.9°
Reaches altitude 10° 19:47:15 10° 272° (W) 1,891 5.2 -15.3°
Maximum altitude 19:51:25 46° 347° (NNW) 807 2.4 -15.9°
Enters shadow 19:55:13 13° 58° (ENE) 1,770 3.6 -16.4°
